Vertical_Velocity
-2 -2 -2 -2 -2 -2 -3 -3 -3 -4 -4 -4 -4 -4 -3 -4 -4 -4 -3 -3 -3 -2 -3 -3 -3 -3 -3 -3 -2 -2 -1 -1 -1 -0 -0 -0 -0 -0 -0 -1 -1 -1 -1 -1 -1 -1 -2 -1 -1 -2 -2 -2 -2 -1 -1 -2 -2 -1 -1 -1 -2 -1 -1 -1 -1 -1 -1 -0 0
-2 -2 -2 -2 -3 -3 -3 -4 -4 -4 -4 -4 -4 -3 -3 -4 -4 -4 -3 -3 -3 -2 -2 -2 -2 -2 -2 -2 -2 -1 -1 -0 -0 0 0 -0 -0 -1 -1 -1 -1 -1 -1 -1 -1 -2 -2 -2 -2 -2 -2 -2 -2 -1 -0 -1 -2 -2 -1 -0 -1 -1 -2 -2 -2 -2 -2 -2 -1
-2 -2 -2 -3 -3 -3 -4 -4 -4 -4 -4 -4 -3 -3 -3 -4 -4 -4 -3 -3 -2 -2 -2 -2 -1 -1 -1 -1 -1 -1 -1 -0 -0 -0 -0 -0 -1 -1 -1 -1 -1 -1 -1 -1 -1 -1 -1 -2 -2 -2 -2 -2 -2 -1 -1 -0 -1 -2 -2 -1 -1 -1 -2 -3 -3 -3 -2 -2 -2
-2 -2 -2 -3 -3 -3 -4 -4 -4 -4 -4 -4 -3 -3 -3 -4 -4 -4 -3 -3 -2 -2 -1 -1 -1 -1 -1 -1 -0 -0 -0 -1 -1 -1 -1 -1 -1 -1 -1 -1 -1 -1 -1 -1 -1 -1 -1 -1 -2 -2 -2 -1 -1 -2 -1 -1 -1 -1 -2 -2 -3 -2 -2 -2 -3 -3 -3 -2 -2
-1 -2 -2 -3 -3 -4 -4 -4 -4 -4 -4 -3 -3 -3 -3 -4 -4 -4 -3 -3 -2 -1 -1 -1 -1 -1 -1 -0 -0 -0 -0 -0 -1 -1 -1 -1 -1 -1 -1 -1 -1 -1 -1 -1 -2 -2 -2 -2 -2 -2 -2 -1 -1 -1 -2 -2 -1 -1 -1 -2 -3 -3 -3 -2 -2 -3 -3 -2 -1
-1 -2 -2 -3 -4 -4 -4 -4 -4 -3 -3 -3 -3 -3 -3 -3 -4 -4 -3 -2 -2 -1 -1 -0 -0 -0 -0 0 0 0 -0 -1 -1 -1 -2 -2 -2 -2 -1 -1 -1 -1 -1 -1 -1 -2 -2 -2 -1 -2 -2 -3 -2 -1 -1 -2 -2 -2 -2 -2 -2 -3 -3 -1 -1 -2 -3 -3 -1
-2 -2 -3 -3 -4 -3 -3 -3 -3 -3 -3 -3 -2 -2 -2 -2 -3 -3 -3 -2 -1 -1 -1 -0 -0 -0 -0 -0 -0 -0 -0 -1 -1 -1 -2 -2 -2 -2 -2 -1 -1 -1 -1 -1 -1 -1 -2 -2 -2 -2 -2 -2 -3 -2 -1 -1 -1 -2 -3 -3 -1 -2 -3 -3 -1 -1 -2 -3 -2
-3 -3 -3 -4 -3 -3 -3 -3 -2 -2 -2 -2 -2 -1 -1 -2 -2 -2 -2 -1 -1 -1 -1 -1 -1 -1 -1 -1 -1 -1 -1 -0 -1 -1 -1 -1 -1 -1 -1 -1 -1 -1 -1 -1 -1 -1 -1 -1 -2 -2 -2 -1 -1 -2 -2 -2 -1 -1 -3 -5 -3 -1 -1 -3 -3 -1 -1 -2 -2
-3 -3 -3 -3 -3 -3 -2 -2 -2 -2 -2 -2 -2 -1 -1 -2 -2 -2 -2 -1 -1 -1 -1 -1 -1 -1 -1 -1 -1 -1 -1 -1 -1 -1 -1 -1 -1 -1 -1 -1 -1 -1 -1 -1 -1 -1 -0 -1 -1 -1 -1 -1 -1 -1 -2 -3 -3 -2 -2 -4 -4 -2 -0 -1 -2 -1 0 1 -1
-3 -3 -3 -3 -3 -2 -2 -2 -2 -2 -2 -2 -2 -1 -1 -2 -2 -2 -2 -1 -1 -1 -1 -1 -1 -1 -1 -1 -1 -1 -1 -1 -1 -1 -1 -1 -1 -1 -1 -1 -1 -1 -1 -1 -1 -1 -1 -1 -0 0 0 -1 -1 -1 -1 -2 -3 -3 -2 -1 -3 -3 -2 -0 -2 -2 -1 1 -0
-3 -3 -3 -3 -2 -2 -2 -2 -2 -2 -2 -2 -2 -2 -2 -3 -3 -3 -2 -1 -1 -1 -1 -1 -1 -1 -1 -1 -1 -1 -1 -1 -1 -1 -1 -1 -1 -1 -1 -1 -1 -1 -1 -1 -1 -1 -1 -1 -1 -1 -0 -0 -2 -2 -1 -0 -1 -2 -2 -1 -2 -4 -4 -2 -0 -0 -1 -1 -1
-3 -2 -2 -2 -2 -2 -2 -2 -1 -1 -1 -1 -1 -2 -3 -3 -4 -3 -2 -2 -1 -1 -1 -1 -1 -1 -1 -1 -1 -1 -1 -1 -1 -1 -1 -1 -1 -1 -1 -1 -1 -1 -1 -1 -1 -1 -2 -2 -3 -2 -1 -0 -1 -2 -2 -1 -1 -1 -2 -2 -2 -3 -3 -3 -1 1 1 0 -1
-2 -2 -2 -2 -1 -1 -1 -1 -1 -1 -0 -1 -1 -2 -3 -4 -4 -3 -3 -2 -1 -1 -1 -1 -1 -1 -1 -1 -1 -1 -1 -1 -1 -1 -1 -1 -1 -1 -1 -1 -1 -1 -1 -1 -1 -1 -1 -1 -2 -3 -3 -1 -0 -0 -1 -1 -1 -2 -2 -3 -2 -1 -1 -2 -1 -0 1 2 1
-1 -1 -1 -1 -1 -1 -1 -1 -1 -0 -0 -0 -1 -2 -3 -4 -4 -3 -3 -2 -1 -1 -1 -1 -1 -1 -1 -1 -1 -1 -1 -1 -0 -0 -0 -0 -0 -0 -0 -0 -1 -1 -1 -1 -1 -1 -1 -1 -1 -2 -2 -2 -1 -0 -0 -0 -1 -1 -2 -3 -2 -2 -1 -2 -1 -1 0 0 1
-1 -1 -1 -1 -1 -1 -1 -1 -1 -0 -0 -1 -1 -2 -2 -3 -4 -3 -3 -2 -1 -1 -1 -1 -1 -1 -1 -1 -1 -1 -1 -1 -0 0 0 0 0 0 0 -0 -0 -1 -1 -1 -0 -0 -1 -1 -0 -0 -0 -1 -1 -1 -1 -1 -1 -1 -1 -2 -2 -2 -2 -2 -1 0 1 1 0
-1 -1 -1 -0 -0 -1 -1 -1 -1 -1 -1 -1 -1 -1 -2 -2 -3 -3 -2 -1 -1 -1 -1 -1 -1 -1 -1 -1 -1 -0 -0 -0 -0 0 1 1 1 0 -0 -0 -1 -1 -1 -1 -0 0 1 1 0 -0 -0 -0 -1 -2 -2 -2 -2 -2 -2 -1 -1 -1 -1 -1 -0 0 1 2 1
-1 -1 -1 -0 -0 -0 -1 -1 -1 -1 -1 -1 -1 -1 -1 -2 -2 -2 -2 -2 -1 -1 -1 -1 -1 -1 -0 -0 -1 -0 0 1 1 0 1 1 0 -0 -1 -1 -1 -1 -1 -1 -1 -0 1 1 1 1 -0 -1 -2 -2 -3 -3 -2 -2 -2 -1 -1 -1 -1 -1 0 0 1 1 2
-1 -1 -0 -0 -0 -0 -1 -1 -2 -2 -2 -2 -2 -1 -1 -2 -2 -2 -1 -1 -1 -1 -1 -1 -0 -0 -0 0 0 -0 0 1 1 1 0 -0 -0 -1 -1 -1 -1 -1 -1 -1 -0 -0 -0 -0 0 0 -0 -1 -2 -2 -3 -3 -2 -2 -1 -1 -1 -0 -0 -0 1 1 1 1 1
-0 -0 -0 -0 -0 -1 -1 -2 -2 -2 -2 -2 -2 -2 -1 -1 -2 -1 -1 -1 -1 -1 -1 -1 -0 -0 0 1 1 1 0 0 1 0 -0 -1 -1 -1 -1 -2 -1 -1 -1 -0 -0 -0 -1 -1 -1 -1 -2 -2 -2 -2 -2 -2 -2 -2 -2 -1 -1 -1 -0 1 1 2 2 2 2
-0 -0 0 -0 -1 -1 -2 -2 -2 -2 -2 -2 -2 -1 -1 -1 -1 -1 -1 -1 -1 -1 -1 -1 -0 0 0 1 1 1 1 -0 -0 -0 -0 -1 -2 -2 -1 -1 -1 -1 -1 -1 -0 -0 -1 -1 -2 -2 -2 -2 -3 -3 -3 -2 -1 -1 -1 -1 -1 -1 -0 1 1 2 3 3 3
0 0 0 -0 -1 -2 -2 -1 -1 -1 -1 -1 -1 -1 -1 -1 -1 -1 -1 -1 -1 -1 -1 -1 -0 -0 0 0 1 1 1 0 -0 -1 -1 -1 -2 -2 -2 -1 -0 -0 -1 -1 -1 -1 -1 -2 -3 -3 -3 -2 -2 -2 -3 -3 -3 -2 -1 -1 -1 -1 0 1 2 2 3 3 3
0 0 -0 -1 -2 -2 -2 -1 -1 -1 -1 -1 -1 -1 -1 -1 -1 -1 -1 -1 -1 -1 -1 -1 -0 -0 -0 -0 0 0 0 -0 -1 -1 -2 -1 -1 -1 -1 -2 -1 -1 -0 -1 -1 -1 -2 -2 -3 -3 -4 -4 -3 -2 -1 -2 -2 -3 -2 -2 -1 -1 -0 1 2 2 3 4 3
0 -0 -1 -2 -2 -2 -1 -1 -1 -1 -1 -1 -1 -1 -1 -1 -1 -1 -1 -1 -1 -1 -1 -1 -1 -0 0 -0 -1 -1 -1 -1 -2 -2 -2 -1 -1 0 1 0 -1 -1 -1 -0 -1 -2 -3 -4 -4 -3 -3 -3 -4 -3 -2 -1 -1 -2 -2 -2 -2 -1 -0 0 1 1 2 3 4
-0 -1 -2 -2 -2 -2 -1 -1 -1 -0 -1 -1 -1 -1 -1 -1 -1 -1 -1 -1 -1 -1 -1 -1 -1 -1 -0 -0 -1 -2 -2 -2 -2 -1 -1 -0 0 0 1 1 1 -0 -1 -1 -1 -1 -1 -3 -4 -4 -3 -2 -3 -3 -3 -2 -2 -2 -1 -1 -2 -1 -1 1 1 1 1 1 2
-1 -2 -2 -2 -2 -1 -1 -1 -1 -0 -1 -1 -1 -1 -1 -2 -2 -2 -2 -1 -1 -1 -1 -0 -1 -1 -1 -1 -1 -2 -2 -2 -2 -1 0 1 1 1 0 -0 0 -0 -1 -1 -1 -0 1 1 -0 -2 -3 -3 -3 -3 -2 -1 -1 -1 -1 -1 -1 -1 -1 -0 1 2 2 1 1
-2 -2 -1 -1 -1 -1 -1 -1 -1 -1 -1 -1 -1 -1 -2 -2 -2 -2 -2 -2 -1 -1 -1 -1 -1 -1 -1 -2 -2 -2 -1 -1 -1 -1 -0 0 1 1 1 -0 -2 -2 -2 -1 -0 0 1 1 2 1 -0 -2 -3 -3 -3 -2 -1 -0 -1 -1 -0 -0 -0 -1 -0 0 1 1 0
-1 -1 -1 -1 -1 -1 -1 -1 -1 -1 -1 -1 -1 -1 -1 -2 -2 -2 -2 -2 -1 -1 -1 -1 -1 -1 -1 -2 -2 -1 -0 0 0 0 0 -0 -0 -0 0 0 -1 -2 -2 -1 -0 0 -0 -1 0 1 1 0 -1 -2 -2 -3 -2 -1 0 -0 1 2 2 1 -0 -1 -1 -1 -2
-1 -1 -1 -1 -1 -1 -1 -1 -1 -1 -1 -1 -1 -1 -1 -1 -1 -1 -1 -1 -1 -1 -1 -1 -2 -2 -1 -1 -1 -1 -0 0 1 1 1 0 -1 -1 -2 -1 -1 -1 -1 -1 -0 -1 -1 -2 -1 -0 1 2 0 -1 -1 -2 -1 -0 1 1 1 2 2 2 1 -1 -3 -4 -4
-0 -0 -1 -1 -0 -0 -1 -1 -1 -1 -1 -1 -1 -1 -1 -1 -1 -1 -1 -1 -1 -1 -1 -1 -1 -1 -2 -1 -1 -0 -0 -0 -0 0 0 -0 -1 -2 -2 -2 -1 -1 -1 -1 -1 -1 -2 -2 -2 -1 1 2 2 1 -0 -1 -0 0 1 2 2 1 1 1 -0 -2 -3 -5 -5
-0 -1 -1 -0 -0 -0 -0 -1 -1 -1 -1 -1 -1 -1 -1 -1 -1 -1 -1 -1 -1 -0 -0 -1 -1 -1 -1 -1 -1 -1 -0 -0 -0 -1 -2 -1 -1 -1 -1 -2 -1 -2 -2 -2 -2 -2 -1 -1 -1 -1 0 2 3 2 1 0 0 0 1 1 1 1 1 -1 -2 -3 -3 -4 -3
-1 -1 -1 -0 -0 -0 -0 -1 -1 -1 -1 -1 -1 -1 -1 -1 -0 -0 -0 -1 -1 -1 -1 -1 -1 -1 -0 -0 -0 -0 -0 -0 -0 -1 -2 -3 -2 -1 -1 -2 -2 -2 -2 -2 -2 -2 -1 -1 -1 -0 0 1 2 2 2 1 1 1 1 1 1 1 0 -1 -3 -4 -4 -3 -2
-1 -1 -1 -0 -0 -0 -0 -1 -1 -1 -1 -0 -1 -1 -0 -0 -0 0 -0 -0 -1 -1 -2 -2 -1 -1 -1 -0 0 -0 -1 -2 -1 -0 -0 -1 -2 -2 -2 -2 -2 -2 -2 -1 -1 -1 -1 -1 -0 -0 0 1 1 1 1 1 1 1 1 1 1 -0 -1 -1 -2 -3 -3 -2 -2
-2 -1 -1 -0 -0 -0 -0 -1 -1 -0 -0 -0 -0 -0 -0 -0 -0 -0 -1 -1 -1 -2 -1 -1 -1 -1 -1 -1 -1 -1 -1 -2 -3 -2 -1 0 -1 -2 -3 -3 -2 -2 -1 -0 -0 -1 -1 -1 -0 0 0 1 0 0 0 1 1 1 1 0 -0 -1 -2 -2 -2 -2 -2 -2 -1
-2 -1 -0 -0 -0 -0 -1 -1 -1 -1 -0 -0 -0 -0 -0 -0 -1 -1 -1 -2 -2 -2 -1 -1 -1 -1 -1 -1 -1 -2 -2 -1 -2 -3 -2 -1 -0 -1 -1 -2 -2 -1 -1 0 0 -0 -1 -1 -0 -0 -0 -1 -1 -1 -0 1 2 2 1 -0 -1 -2 -3 -3 -2 -2 -2 -3 -2
-1 -1 0 0 0 -0 -1 -1 -1 -1 -0 -0 -0 -0 -0 -1 -1 -1 -1 -1 -2 -2 -2 -1 -0 -1 -1 -1 -1 -2 -2 -2 -1 -1 -2 -3 -2 -1 -0 -1 -1 -1 0 1 1 -0 -1 -1 -1 -1 -1 -1 -1 -1 -1 0 1 0 -1 -1 -2 -3 -3 -2 -2 -3 -3 -3 -2
-1 -0 0 0 0 -0 -0 -1 -1 -1 -1 -1 -1 -1 -1 -1 -2 -2 -2 -2 -2 -2 -2 -1 -0 -0 -0 -1 -1 -1 -2 -2 -1 -1 -1 -2 -3 -2 -0 0 -1 -1 0 2 1 0 -1 -2 -2 -1 -1 -1 -0 -0 -0 -0 -1 -3 -3 -3 -3 -4 -4 -3 -3 -3 -2 -2 -0
-0 0 0 0 -0 -0 -1 -1 -1 -1 -1 -1 -1 -1 -2 -2 -2 -3 -3 -3 -2 -2 -2 -2 -1 -1 -0 -0 -0 -1 -1 -2 -2 -1 -1 -1 -2 -3 -2 -0 -0 -1 -1 -0 1 -0 -1 -3 -2 -2 -1 0 1 1 -0 -1 -2 -4 -5 -4 -4 -4 -4 -4 -3 -2 -2 -1 1
0 0 -0 -0 -0 -1 -1 -1 -1 -1 -1 -1 -1 -2 -2 -3 -3 -3 -3 -2 -2 -2 -2 -2 -2 -1 -1 -0 -0 -1 -1 -1 -1 -1 -1 0 -1 -2 -3 -2 -1 -1 -2 -2 -1 -1 -2 -3 -3 -1 0 2 1 0 -1 -2 -2 -3 -4 -4 -5 -4 -4 -3 -1 -1 -1 -1 1
0 -0 -0 -0 -1 -1 -1 -1 -1 -2 -2 -2 -2 -3 -3 -3 -3 -2 -2 -2 -1 -1 -2 -1 -1 -1 -1 -1 -1 -1 -1 -0 -0 -1 -1 -0 -0 -1 -2 -3 -3 -2 -2 -3 -2 -2 -1 -2 -2 -1 1 3 1 0 -1 -2 -2 -3 -3 -4 -4 -4 -3 -2 -1 -1 -1 -0 1
-0 -0 -0 -1 -1 -1 -1 -2 -2 -2 -2 -2 -3 -3 -3 -3 -3 -2 -2 -1 -1 -1 -1 -1 -1 -1 -1 -1 -1 -1 -1 0 1 -0 -0 -0 -1 -1 -2 -3 -3 -3 -3 -4 -4 -2 -1 -0 -0 0 1 2 2 0 -1 -1 -2 -3 -3 -3 -3 -3 -3 -3 -2 -1 0 1 1
-0 -0 -1 -1 -1 -1 -1 -1 -2 -2 -3 -3 -3 -3 -3 -3 -2 -2 -1 -0 0 -0 -1 -1 -1 -1 -0 -1 -1 -2 -2 -1 1 1 -0 -1 -1 -2 -3 -4 -3 -2 -2 -3 -4 -3 -1 0 0 0 1 2 2 1 0 -0 -1 -2 -3 -3 -2 -2 -3 -5 -4 -2 -0 0 0
Height
1498 1498 1498 1498 1497 1497 1497 1497 1497 1496 1496 1496 1495 1494 1494 1493 1492 1492 1491 1489 1488 1487 1486 1485 1484 1483 1482 1481 1480 1479 1478 1477 1476 1475 1473 1472 1471 1470 1469 1468 1467 1465 1464 1462 1461 1460 1459 1457 1456 1455 1453 1452 1451 1449 1448 1447 1445 1444 1442 1441 1440 1438 1437 1436 1434 1433 1432 1431 1430
1498 1498 1497 1497 1497 1497 1497 1497 1496 1496 1495 1495 1494 1493 1493 1492 1492 1491 1489 1488 1487 1486 1485 1484 1483 1482 1481 1480 1479 1478 1477 1476 1475 1474 1473 1472 1470 1469 1468 1467 1465 1464 1463 1461 1460 1459 1457 1456 1455 1453 1452 1450 1449 1448 1447 1445 1443 1442 1441 1439 1438 1437 1435 1434 1433 1432 1430 1429 1428
1498 1497 1497 1497 1497 1497 1497 1496 1496 1495 1495 1494 1493 1492 1492 1491 1490 1490 1488 1487 1486 1485 1484 1483 1482 1481 1480 1479 1478 1477 1476 1475 1474 1473 1472 1471 1469 1468 1467 1466 1464 1463 1462 1460 1459 1457 1456 1455 1453 1452 1450 1449 1447 1446 1445 1443 1442 1441 1439 1438 1437 1435 1434 1432 1431 1430 1429 1427 1426
1497 1497 1497 1497 1497 1496 1496 1495 1495 1494 1494 1493 1492 1491 1491 1490 1489 1488 1487 1486 1485 1484 1483 1482 1481 1480 1479 1478 1477 1476 1475 1474 1473 1472 1471 1470 1468 1467 1466 1464 1463 1462 1460 1459 1457 1456 1454 1453 1452 1450 1449 1447 1446 1445 1443 1442 1441 1439 1438 1437 1435 1434 1432 1431 1430 1428 1427 1426 1424
1497 1497 1497 1497 1496 1496 1495 1495 1494 1493 1493 1492 1491 1490 1489 1489 1488 1487 1486 1485 1484 1483 1482 1481 1480 1479 1478 1477 1476 1475 1474 1473 1472 1471 1470 1468 1467 1466 1464 1463 1462 1460 1459 1457 1456 1454 1453 1452 1450 1449 1447 1446 1445 1443 1442 1441 1439 1438 1436 1435 1434 1432 1431 1430 1428 1427 1425 1424 1422
1497 1497 1496 1496 1496 1495 1495 1494 1493 1493 1492 1491 1490 1489 1488 1488 1487 1486 1485 1484 1483 1482 1481 1480 1479 1478 1477 1476 1475 1474 1473 1472 1471 1470 1468 1467 1466 1465 1463 1462 1460 1459 1457 1456 1454 1453 1452 1450 1449 1447 1446 1445 1443 1442 1441 1439 1438 1436 1435 1433 1432 1431 1429 1428 1427 1425 1423 1422 1421
1496 1496 1496 1495 1495 1494 1494 1493 1492 1492 1491 1490 1489 1488 1487 1487 1486 1485 1484 1483 1482 1481 1480 1479 1478 1477 1476 1475 1474 1473 1472 1471 1470 1468 1467 1466 1464 1463 1462 1460 1459 1457 1456 1455 1453 1452 1450 1449 1447 1446 1444 1443 1442 1440 1439 1438 1436 1435 1433 1432 1430 1429 1428 1426 1424 1423 1422 1420 1419
1496 1495 1495 1495 1494 1493 1493 1492 1492 1491 1490 1489 1488 1487 1487 1486 1485 1484 1483 1482 1481 1480 1479 1478 1477 1476 1475 1474 1473 1472 1471 1470 1468 1467 1466 1464 1463 1462 1460 1459 1458 1456 1455 1453 1452 1450 1449 1447 1446 1444 1443 1442 1440 1438 1437 1436 1434 1433 1431 1430 1428 1427 1426 1424 1422 1421 1419 1418 1417
1495 1495 1494 1494 1493 1492 1492 1491 1491 1490 1489 1488 1487 1487 1486 1485 1484 1483 1482 1481 1480 1479 1478 1477 1476 1475 1474 1473 1472 1471 1470 1468 1467 1466 1464 1463 1462 1460 1459 1457 1456 1455 1453 1452 1450 1449 1447 1446 1445 1443 1442 1440 1438 1437 1435 1434 1432 1431 1429 1428 1427 1425 1424 1422 1421 1419 1418 1416 1414
1494 1494 1493 1493 1492 1492 1491 1490 1490 1489 1488 1487 1487 1486 1485 1484 1483 1482 1482 1480 1479 1478 1477 1476 1475 1474 1473 1472 1471 1470 1468 1467 1466 1464 1463 1462 1460 1459 1457 1456 1455 1453 1452 1450 1449 1447 1446 1444 1443 1442 1440 1438 1437 1435 1433 1432 1431 1429 1427 1426 1424 1423 1422 1420 1419 1417 1416 1414 1412
1493 1493 1492 1492 1492 1491 1490 1489 1488 1488 1487 1487 1486 1485 1484 1483 1482 1482 1480 1479 1478 1477 1476 1475 1474 1473 1472 1471 1470 1468 1467 1466 1464 1463 1462 1460 1459 1457 1456 1454 1453 1452 1450 1449 1447 1446 1444 1443 1441 1440 1438 1437 1435 1433 1432 1430 1429 1427 1426 1424 1422 1421 1419 1418 1417 1416 1414 1412 1410
1492 1492 1492 1491 1490 1490 1489 1488 1487 1487 1486 1485 1484 1484 1483 1482 1482 1480 1479 1478 1477 1476 1475 1474 1473 1472 1471 1469 1468 1467 1466 1464 1463 1462 1460 1459 1457 1456 1454 1453 1452 1450 1448 1447 1446 1444 1442 1441 1439 1438 1436 1435 1433 1432 1430 1428 1427 1425 1423 1422 1421 1419 1417 1416 1415 1413 1412 1410 1408
1492 1491 1491 1490 1489 1489 1488 1487 1487 1486 1485 1484 1483 1483 1482 1481 1480 1479 1478 1477 1476 1475 1474 1473 1472 1471 1469 1468 1467 1466 1464 1463 1461 1460 1458 1457 1456 1454 1453 1452 1450 1448 1447 1446 1444 1442 1441 1439 1437 1436 1434 1432 1431 1430 1428 1426 1425 1423 1422 1420 1418 1417 1416 1414 1413 1411 1409 1407 1406
1491 1490 1490 1489 1488 1487 1487 1486 1486 1485 1484 1483 1482 1482 1481 1480 1479 1478 1477 1476 1475 1474 1472 1472 1470 1469 1468 1467 1465 1464 1463 1461 1460 1458 1457 1456 1454 1453 1452 1450 1448 1447 1446 1444 1442 1441 1439 1437 1436 1434 1432 1431 1429 1427 1426 1424 1423 1421 1420 1418 1417 1415 1413 1412 1411 1409 1407 1405 1403
1490 1489 1489 1488 1487 1487 1486 1485 1485 1484 1483 1482 1481 1480 1480 1479 1478 1477 1476 1475 1474 1472 1472 1470 1469 1468 1467 1465 1464 1462 1461 1460 1458 1457 1456 1454 1453 1452 1450 1448 1447 1445 1444 1442 1441 1439 1437 1436 1434 1432 1430 1428 1427 1425 1424 1422 1421 1419 1418 1416 1415 1413 1411 1410 1408 1407 1405 1403 1401
1489 1488 1488 1487 1486 1486 1485 1484 1483 1483 1482 1481 1480 1479 1478 1477 1477 1476 1475 1473 1472 1471 1470 1469 1468 1466 1465 1464 1462 1461 1460 1458 1457 1456 1454 1453 1452 1450 1448 1447 1445 1444 1442 1441 1439 1437 1436 1434 1432 1430 1428 1427 1425 1423 1422 1420 1419 1417 1416 1414 1413 1411 1409 1408 1406 1404 1403 1401 1399
1488 1487 1487 1486 1485 1485 1484 1483 1482 1482 1481 1480 1479 1478 1477 1476 1475 1474 1473 1472 1471 1470 1469 1467 1466 1465 1464 1462 1461 1460 1458 1457 1456 1454 1453 1452 1450 1448 1447 1445 1443 1442 1440 1439 1437 1435 1433 1432 1430 1428 1427 1425 1423 1421 1420 1418 1417 1415 1413 1412 1411 1409 1407 1406 1404 1402 1400 1398 1397
1487 1487 1486 1485 1484 1483 1483 1482 1481 1481 1480 1479 1478 1477 1476 1475 1474 1473 1472 1471 1470 1469 1467 1466 1465 1464 1462 1461 1460 1458 1457 1456 1454 1453 1452 1450 1448 1447 1445 1443 1442 1440 1438 1437 1435 1433 1432 1430 1428 1426 1425 1423 1421 1419 1417 1416 1414 1413 1411 1410 1408 1407 1405 1403 1402 1400 1398 1396 1394
1487 1486 1485 1484 1483 1482 1482 1481 1480 1479 1478 1478 1477 1476 1475 1474 1473 1472 1471 1469 1468 1467 1466 1465 1464 1462 1461 1460 1458 1457 1456 1454 1453 1451 1450 1448 1447 1445 1443 1441 1440 1438 1436 1435 1433 1431 1429 1428 1426 1424 1422 1421 1419 1417 1416 1414 1412 1411 1409 1407 1406 1404 1402 1401 1399 1397 1396 1394 1392
1485 1485 1484 1483 1482 1482 1481 1480 1479 1478 1477 1477 1476 1475 1473 1472 1472 1470 1469 1468 1467 1466 1465 1464 1462 1461 1460 1458 1457 1456 1454 1453 1451 1449 1448 1446 1445 1443 1441 1439 1437 1436 1434 1433 1431 1429 1427 1426 1424 1422 1420 1418 1417 1415 1413 1412 1410 1408 1407 1405 1403 1402 1400 1398 1397 1395 1393 1392 1390
1484 1483 1482 1482 1481 1480 1480 1479 1478 1477 1476 1475 1474 1473 1472 1471 1470 1469 1468 1467 1466 1465 1463 1462 1461 1460 1458 1457 1456 1454 1452 1451 1449 1448 1446 1444 1442 1441 1439 1437 1436 1434 1432 1431 1429 1427 1426 1424 1422 1420 1418 1416 1414 1412 1411 1409 1407 1405 1404 1402 1401 1399 1397 1396 1394 1392 1391 1389 1387
1483 1482 1482 1481 1480 1479 1478 1477 1477 1476 1475 1474 1473 1472 1471 1470 1469 1468 1467 1466 1465 1463 1462 1461 1459 1458 1457 1455 1454 1452 1451 1449 1447 1446 1444 1442 1441 1439 1437 1436 1434 1432 1430 1429 1427 1425 1423 1422 1420 1418 1416 1414 1412 1410 1408 1407 1405 1403 1401 1399 1398 1396 1394 1393 1391 1390 1388 1387 1385
1482 1481 1481 1480 1479 1478 1477 1476 1476 1475 1474 1473 1472 1471 1470 1469 1468 1467 1466 1464 1463 1462 1461 1459 1458 1457 1455 1454 1452 1451 1449 1447 1446 1444 1442 1441 1439 1437 1435 1434 1432 1430 1429 1427 1425 1423 1422 1419 1417 1415 1414 1412 1410 1407 1406 1404 1402 1400 1398 1397 1395 1393 1392 1390 1389 1387 1386 1384 1383
1481 1480 1479 1479 1478 1477 1476 1475 1474 1473 1472 1472 1471 1469 1468 1467 1467 1465 1464 1463 1462 1461 1459 1458 1457 1455 1453 1452 1450 1449 1447 1445 1443 1442 1440 1439 1437 1436 1434 1432 1430 1429 1427 1425 1423 1422 1420 1417 1415 1413 1411 1409 1407 1405 1403 1402 1400 1398 1396 1394 1392 1390 1389 1387 1386 1385 1383 1382 1380
1480 1479 1478 1477 1477 1476 1475 1474 1473 1472 1472 1470 1469 1468 1467 1466 1465 1464 1463 1462 1461 1459 1458 1456 1455 1453 1452 1450 1448 1447 1445 1443 1442 1440 1438 1437 1435 1434 1432 1430 1428 1427 1425 1423 1422 1420 1418 1416 1414 1412 1409 1407 1405 1403 1401 1399 1397 1396 1394 1392 1390 1388 1386 1385 1383 1382 1381 1380 1378
1479 1478 1477 1477 1476 1475 1474 1473 1472 1471 1470 1469 1468 1467 1466 1465 1464 1463 1462 1460 1459 1457 1456 1455 1453 1451 1450 1448 1446 1445 1443 1442 1440 1438 1437 1435 1433 1432 1430 1428 1427 1425 1423 1421 1419 1418 1416 1414 1412 1410 1408 1406 1403 1401 1398 1397 1395 1393 1392 1390 1388 1386 1384 1382 1381 1380 1379 1378 1376
1478 1477 1476 1476 1475 1474 1473 1472 1471 1470 1469 1468 1467 1466 1465 1464 1463 1462 1460 1459 1457 1456 1454 1453 1451 1449 1448 1446 1444 1443 1441 1440 1438 1437 1435 1433 1431 1430 1428 1426 1424 1422 1421 1419 1417 1415 1414 1412 1410 1408 1406 1404 1401 1399 1397 1394 1392 1391 1389 1387 1386 1384 1383 1381 1380 1378 1377 1375 1374
1477 1476 1475 1475 1474 1473 1472 1471 1470 1469 1468 1467 1466 1465 1464 1462 1461 1460 1459 1457 1456 1454 1452 1451 1449 1448 1446 1444 1443 1441 1440 1438 1436 1435 1433 1431 1429 1427 1426 1424 1422 1421 1419 1417 1415 1413 1411 1409 1407 1406 1404 1402 1399 1397 1395 1392 1391 1389 1387 1386 1384 1383 1381 1380 1378 1377 1375 1373 1372
1476 1475 1474 1474 1473 1472 1471 1470 1469 1468 1467 1466 1465 1464 1462 1461 1460 1459 1457 1456 1454 1452 1451 1449 1447 1446 1444 1442 1441 1439 1438 1436 1434 1433 1431 1429 1427 1425 1424 1422 1420 1418 1416 1415 1412 1411 1409 1407 1405 1403 1401 1399 1397 1395 1393 1391 1389 1387 1386 1384 1383 1381 1380 1378 1377 1375 1373 1371 1370
1475 1474 1474 1473 1472 1471 1470 1469 1468 1467 1466 1465 1464 1462 1461 1460 1458 1457 1456 1454 1452 1451 1449 1447 1446 1444 1442 1441 1439 1437 1436 1434 1432 1431 1429 1427 1425 1423 1421 1420 1418 1416 1414 1412 1410 1408 1406 1404 1402 1401 1399 1397 1395 1393 1391 1389 1387 1386 1384 1382 1381 1379 1378 1377 1375 1373 1372 1370 1368
1474 1473 1473 1472 1471 1470 1469 1468 1467 1466 1465 1464 1462 1461 1460 1458 1457 1455 1454 1452 1451 1449 1447 1446 1444 1442 1441 1439 1438 1436 1434 1432 1431 1429 1427 1425 1423 1421 1419 1417 1415 1413 1412 1410 1408 1406 1404 1402 1400 1398 1396 1394 1392 1391 1389 1387 1385 1384 1382 1381 1379 1377 1376 1374 1373 1371 1370 1368 1367
1473 1472 1472 1471 1470 1469 1468 1467 1466 1465 1464 1462 1461 1460 1458 1457 1456 1454 1452 1451 1449 1447 1446 1444 1442 1441 1439 1437 1436 1434 1432 1430 1428 1427 1425 1423 1421 1419 1417 1415 1413 1411 1409 1407 1406 1403 1402 1400 1398 1396 1394 1392 1390 1388 1387 1385 1383 1382 1380 1379 1377 1376 1374 1373 1371 1370 1368 1367 1365
1472 1472 1471 1470 1469 1468 1467 1466 1465 1464 1462 1461 1460 1458 1457 1455 1454 1452 1451 1449 1447 1446 1444 1442 1441 1439 1437 1436 1434 1432 1430 1428 1427 1425 1423 1421 1419 1417 1415 1412 1411 1409 1407 1405 1403 1401 1399 1397 1395 1393 1392 1390 1388 1386 1384 1383 1382 1380 1378 1377 1375 1374 1372 1371 1369 1368 1367 1365 1364
1472 1471 1470 1469 1468 1467 1466 1465 1464 1462 1461 1460 1458 1457 1455 1454 1452 1450 1449 1447 1446 1444 1443 1441 1439 1437 1436 1434 1432 1430 1428 1426 1424 1422 1421 1419 1417 1414 1412 1411 1409 1407 1405 1403 1401 1399 1397 1395 1393 1392 1389 1387 1386 1384 1382 1381 1380 1378 1377 1375 1373 1372 1371 1369 1368 1366 1365 1363 1362
1471 1470 1469 1468 1467 1466 1465 1464 1462 1461 1460 1458 1457 1455 1454 1452 1451 1449 1447 1446 1444 1442 1441 1439 1437 1436 1434 1432 1430 1428 1426 1424 1422 1420 1418 1417 1414 1412 1410 1408 1407 1405 1403 1401 1399 1397 1395 1393 1391 1389 1387 1386 1384 1382 1381 1379 1378 1376 1375 1373 1372 1370 1369 1367 1366 1365 1363 1362 1360
1470 1469 1468 1467 1466 1465 1464 1462 1461 1460 1458 1457 1455 1454 1452 1451 1449 1447 1446 1444 1442 1441 1439 1437 1436 1434 1432 1430 1428 1426 1424 1422 1420 1418 1416 1414 1412 1410 1408 1406 1404 1403 1401 1399 1397 1395 1393 1391 1389 1387 1386 1384 1383 1381 1380 1378 1376 1375 1373 1371 1370 1368 1367 1366 1364 1363 1361 1360 1358
1469 1468 1467 1466 1465 1464 1462 1461 1460 1458 1457 1455 1454 1452 1451 1449 1447 1446 1444 1442 1441 1439 1437 1435 1434 1432 1430 1428 1426 1424 1422 1421 1418 1416 1414 1412 1411 1408 1406 1404 1402 1400 1399 1397 1395 1393 1391 1390 1388 1386 1385 1383 1382 1380 1378 1377 1375 1373 1371 1370 1368 1367 1365 1364 1362 1361 1359 1358 1357
1468 1467 1466 1465 1464 1462 1461 1460 1458 1457 1455 1454 1452 1451 1449 1448 1446 1444 1443 1441 1439 1437 1435 1433 1432 1430 1428 1426 1424 1422 1420 1419 1417 1415 1412 1410 1408 1406 1404 1402 1399 1398 1397 1395 1393 1391 1390 1388 1387 1385 1384 1382 1380 1379 1377 1375 1373 1371 1370 1368 1367 1365 1364 1362 1361 1359 1357 1356 1355
1467 1466 1465 1464 1462 1461 1460 1458 1457 1456 1454 1452 1451 1449 1448 1446 1445 1443 1441 1440 1438 1436 1433 1432 1430 1428 1426 1424 1422 1420 1418 1417 1415 1413 1411 1408 1406 1404 1402 1400 1397 1396 1394 1393 1391 1389 1388 1387 1385 1384 1383 1381 1379 1378 1376 1374 1372 1370 1368 1367 1365 1363 1362 1361 1359 1357 1356 1354 1352
1466 1465 1464 1462 1461 1460 1458 1457 1456 1454 1453 1451 1450 1448 1447 1445 1443 1442 1440 1438 1436 1434 1432 1430 1428 1426 1424 1422 1420 1418 1416 1414 1412 1411 1409 1406 1404 1402 1400 1398 1396 1394 1392 1391 1389 1388 1387 1385 1384 1383 1382 1380 1378 1377 1375 1373 1371 1369 1367 1366 1364 1362 1360 1359 1358 1356 1354 1352 1350
1465 1464 1462 1461 1460 1459 1457 1456 1454 1453 1452 1450 1448 1447 1445 1443 1442 1440 1438 1436 1434 1432 1430 1428 1426 1424 1422 1421 1418 1416 1414 1412 1410 1408 1407 1404 1402 1400 1398 1396 1394 1392 1391 1389 1388 1387 1385 1384 1383 1382 1381 1379 1377 1376 1374 1372 1370 1368 1366 1365 1363 1361 1359 1357 1355 1354 1352 1350 1348